Location: Marcé
(47.5801°N, 0.3280°W)
Time: 23:27:22
(UTC+01:00)

Transit 2A - Pass Details

Date: 09 December 2021
Orbit: 591 x 967 km, 66.7° (Epoch: 16 January)

Event Time Altitude Azimuth Distance (km) Brightness Sun altitude
Rises 08:54:22 0° 323° (NW) 3,665 8.9 1.5°
Reaches altitude 10° 08:57:00 10° 319° (NW) 2,713 8.2 1.8°
Maximum altitude 09:03:13 56° 243° (WSW) 1,120 6.8 2.7°
Drops below altitude 10° 09:09:08 10° 167° (SSE) 2,578 9.7 3.4°
Sets 09:11:36 0° 163° (SSE) 3,469 10.5 3.7°
